Location: Hodgson Observatory
(42.9992°N, 96.7577°W)
Time: 13:21:49
(UTC-05:00)

Daily predictions for brighter satellites

Satellite Brightness Start Highest point End
(mag) Time Altitude Azimuth Time Altitude Azimuth Time Altitude Azimuth
CZ-3C R/B 4.4 20:40:33 10° SW 21:13:57 23° SSW 21:22:42 10° SE
Cosmos 2184 Rocket 4.0 21:10:15 10° S 21:16:23 77° E 21:22:36 10° N
COSMOS 2487 3.8 21:16:39 10° N 21:19:46 26° ENE 21:22:52 10° ESE
Cosmos 1606 3.4 21:16:23 10° N 21:20:04 37° ENE 21:23:43 10° SE
Cosmos 1624 Rocket 4.3 21:15:42 10° SSW 21:20:58 77° WNW 21:26:19 10° NNE
Cosmos 1892 3.4 21:22:54 10° SSW 21:26:41 60° W 21:30:32 10° N
ALOS 3.4 21:24:28 10° S 21:28:57 46° W 21:33:29 10° NNW
BREEZE-M DEB (TANK) 2.4 21:27:22 10° W 21:29:34 40° NNW 21:31:37 10° NE
ERS-1 Rocket 3.0 21:25:01 10° SSE 21:30:01 72° ENE 21:35:04 10° N
Meteor 1-27 Rocket 3.8 21:25:36 10° N 21:31:06 58° ENE 21:36:31 10° SSE
Cosmos 407 Rocket 3.6 21:26:33 10° NNW 21:31:52 89° WSW 21:37:11 10° SSE
SL-8 R/B 4.3 21:27:06 10° W 21:31:53 60° NNW 21:36:40 10° ENE
SJ-11-01 4.3 21:28:58 10° SSE 21:33:43 79° ENE 21:38:28 10° N
Cosmos 1140 Rocket 4.2 21:30:01 10° N 21:34:49 38° ENE 21:39:35 10° SE
Okean 3 4.2 21:33:06 10° N 21:37:06 37° ENE 21:41:03 10° SE
H-2A R/B 4.4 21:36:18 10° SSW 21:39:40 33° W 21:43:05 10° NNW
Cosmos 1782 3.1 21:35:52 10° NNW 21:39:55 73° W 21:43:56 10° S
Cosmos 1674 Rocket 3.9 21:38:57 10° NNW 21:43:24 69° W 21:47:47 10° S
USA 186 4.0 21:40:52 10° SSW 21:43:35 26° W 21:46:27 10° NW
Cosmos 1452 Rocket 3.5 21:39:57 10° S 21:45:10 70° ESE 21:50:26 10° NNE
H-2A R/B 4.0 21:43:05 10° E 21:46:01 15° ENE 21:48:53 10° NNE
Okean 2 Rocket 3.7 21:45:53 10° SSE 21:49:55 36° E 21:53:58 10° NNE
ATLAS 5 CENTAUR R/B 3.9 21:45:18 10° NW 21:50:37 32° WSW 21:56:14 10° S
ARGOS 4.2 21:46:31 12° ESE 21:50:42 29° ENE 21:55:16 10° N
Cosmos 1242 Rocket 3.3 21:52:07 10° N 21:55:33 36° ENE 21:58:03 16° SE
Cosmos 1184 Rocket 3.0 21:53:37 10° S 21:56:51 51° E 22:00:07 10° NNE
ISS -3.4 21:53:47 10° SW 21:57:02 81° SE 22:00:18 10° ENE
Cosmos 1939 Rocket 2.9 21:53:27 10° S 21:57:20 77° W 22:01:18 10° NNW
YAOGAN 6 3.3 21:56:00 16° SE 21:58:22 35° ENE 22:01:36 10° N
Terra 3.8 21:57:04 10° E 21:59:31 14° ENE 22:01:58 10° NNE
Cosmos 1408 2.5 21:56:40 10° S 22:00:18 72° E 22:03:57 10° NNE
Cosmos 1782 Rocket 3.7 21:56:05 10° S 22:00:28 58° E 22:04:53 10° NNE
SPOT 1/Viking Rocket 4.2 21:57:07 14° SE 22:01:06 39° ENE 22:05:56 10° N
Sich 1 Rocket 4.2 21:57:08 10° SSW 22:01:41 63° W 22:06:15 10° N
Nadezhda 3 Rocket 4.1 21:55:59 10° N 22:02:23 90° WSW 22:08:45 10° S
Cosmos 1238 Rocket 2.4 22:00:31 10° N 22:03:50 82° E 22:07:26 12° S
SPOT 5 3.1 22:04:32 11° SSE 22:09:33 81° ENE 22:14:57 10° NNW
Cosmos 1825 2.3 22:07:33 10° S 22:11:22 80° W 22:15:13 10° N
Cosmos 1833 Rocket 3.5 22:08:38 10° N 22:13:51 38° ENE 22:17:28 18° ESE
Cosmos 1975 Rocket 3.0 22:10:11 10° N 22:14:31 82° E 22:18:01 16° S
Cosmos 2084 3.9 22:12:16 10° SW 22:16:04 57° NW 22:19:52 10° NNE
DNEPR-1 R/B 3.8 22:10:38 10° NNW 22:16:08 84° NE 22:19:11 21° SE
Cosmos 1850 Rocket 4.1 22:11:13 10° NNW 22:16:32 67° ENE 22:20:15 20° SSE
MetOp-A 4.1 22:13:08 14° SSE 22:17:43 81° ENE 22:23:06 10° NNW
Cosmos 2278 Rocket 2.3 22:12:51 10° SSW 22:18:32 82° WNW 22:24:15 10° NNE
Cosmos 1844 Rocket 4.1 22:13:39 10° SW 22:18:59 42° WNW 22:24:20 10° NNE
COS B Rocket 3.9 22:17:35 10° N 22:21:33 54° W 22:25:04 10° SSW
Cosmos 1378 Rocket 4.4 22:20:54 10° NNW 22:25:04 48° W 22:29:13 10° SSW
Cosmos 1536 Rocket 4.4 22:23:11 10° N 22:27:20 36° ENE 22:29:10 25° ESE
USA 229 DEB 4.0 22:21:37 10° NNW 22:28:41 63° NE 22:33:32 22° SE
USA 229 4.0 22:21:44 10° NNW 22:28:47 62° NE 22:33:38 22° SE
Cosmos 2341 Rocket 4.3 22:24:16 10° SSW 22:30:33 72° W 22:36:50 10° N
BREEZE-M DEB (TANK) 3.4 22:23:51 10° WNW 22:36:11 73° SW 22:38:17 29° SE
Cosmos 1741 Rocket 4.0 22:32:18 10° NNW 22:37:33 85° WSW 22:40:44 24° SSE
Cosmos 2082 Rocket 2.2 22:31:55 10° NNW 22:37:38 71° ENE 22:40:49 27° SE
Cosmos 1812 3.8 22:35:18 10° NNE 22:38:40 28° ENE 22:39:21 26° E
SL-8 Rocket 3.9 22:34:24 10° S 22:40:40 83° E 22:46:56 10° N
GPS 2-05 Rocket1 4.2 22:37:46 10° WSW 22:40:33 25° SSW 22:40:33 25° SSW
Meteor 1-14 Rocket 4.1 22:36:23 13° S 22:41:25 76° E 22:47:00 10° NNE
USA 245 3.2 22:42:27 34° S 22:43:52 80° WSW 22:48:05 10° NNW
Timation 2 Rocket 4.1 22:39:27 10° NNW 22:45:23 65° WSW 22:49:12 23° S
Intercosmos 25 3.6 22:47:34 16° SSW 22:50:08 54° W 22:53:15 10° N
Cosmos 1110 Rocket 4.3 22:50:53 32° SSE 22:52:45 45° ESE 22:57:42 10° NNE
H-2A R/B 4.1 22:50:22 10° SSW 22:53:49 23° W 22:57:14 10° NW
Cosmos 2297 3.8 22:49:11 10° SSW 22:54:53 82° WNW 23:00:40 10° NNE
IGS 5A 4.2 22:54:28 33° E 22:55:21 37° ENE 22:59:12 10° N
Cosmos 2151 Rocket 3.5 22:53:44 28° S 22:56:07 84° E 23:00:40 10° N
CZ-4 R/B 3.6 22:55:40 10° NNE 23:00:21 80° ESE 23:02:41 30° S
NOAA 11 4.3 22:57:39 26° S 23:00:49 74° WSW 23:06:21 10° NNW
Cosmos 614 Rocket 4.5 22:59:13 10° NNW 23:04:09 52° WSW 23:06:40 27° SSW
Cosmos 864 Rocket 4.4 23:06:30 21° S 23:10:44 85° W 23:16:57 10° N
Cosmos 1300 Rocket 3.8 23:10:39 47° ESE 23:11:08 50° E 23:15:27 10° NNE
Okean 1 Rocket 3.3 23:15:49 47° ESE 23:16:07 48° E 23:20:27 10° NNE
NOSS 3-1 (C) 4.4 23:09:17 10° NNW 23:16:35 55° NE 23:21:03 27° ESE
Gbstr 26 Del rocket 3.5 23:12:02 10° NW 23:17:03 57° NNE 23:18:30 38° E
CZ-4C R/B 3.3 23:17:11 59° S 23:17:52 79° WSW 23:22:01 10° NNW
Cosmos 1486 Rocket 4.4 23:13:23 10° NNW 23:18:38 53° ENE 23:20:03 41° ESE
Landsat 7 3.9 23:19:26 43° S 23:20:56 73° WSW 23:25:43 10° NNW
Cosmos 2366 rocket 4.3 23:16:58 18° SSW 23:21:47 67° W 23:28:08 10° N
H-2A R/B 2.1 23:22:52 42° S 23:24:45 83° WSW 23:30:04 10° NNW
Cosmos 2369 Rocket 3.4 23:26:50 24° E 23:26:50 24° E 23:30:32 10° NE
CZ-4B R/B 4.4 23:21:23 10° N 23:26:04 44° WNW 23:30:09 13° SW
USA 234 3.3 23:20:39 10° ENE 23:26:59 50° SE 23:30:12 28° SSW
Okean 1-7 Rocket 3.6 23:23:59 10° N 23:28:28 64° E 23:28:52 61° ESE
Cosmos 1400 Rocket 4.2 23:30:22 28° ENE 23:30:22 28° ENE 23:33:10 10° NNE
ARGOS 4.2 23:28:02 23° SSW 23:30:47 39° W 23:35:48 10° NNW
Cosmos 1536 4.4 23:32:37 24° ENE 23:32:37 24° ENE 23:34:56 10° NNE
CZ-3 Stage 3 4.5 22:38:11 10° W 23:33:38 45° SSW 23:37:00 34° SSE
ISS -0.9 23:31:03 10° WNW 23:33:46 24° NNW 23:36:30 10° NE
Timation 1 Rocket 4.4 23:29:58 19° SSW 23:34:25 82° WNW 23:40:28 10° NNE
Terra 1.9 23:35:40 54° SSW 23:36:39 73° WSW 23:41:26 10° NNW
Cosmos 1302 Rocket 3.9 23:46:58 64° SSE 23:47:37 72° ESE 23:52:54 10° NNE
Spot 4 3.9 23:50:39 60° SSW 23:51:20 70° WSW 23:56:12 10° NNW
CARTOSAT-1 4.3 23:52:52 41° WSW 23:53:18 43° W 23:57:26 10° NNW
Okean 1 4.2 23:50:17 10° NNW 23:54:09 43° W 23:54:20 42° W
